Location: Frankfurt+am+Main
(50.1100°N, 8.4815°E)
Time: 12:14:59
(UTC+01:00)

N. Korean satellite - Visible Passes

Search period start: 25 November 2017 00:00
Search period end: 05 December 2017 00:00
Orbit: 460 x 514 km, 97.2° (Epoch: 25 November)

Date Brightness Start Highest point End Pass type
(mag) Time Alt. Az. Time Alt. Az. Time Alt. Az.
25 Nov 9.0 06:41:20 10° NNE 06:44:38 28° E 06:47:56 10° SSE visible
25 Nov 7.7 17:22:24 10° ESE 17:25:15 23° ENE 17:28:09 10° NNE visible
25 Nov 8.4 18:55:25 10° SSW 18:58:38 32° W 19:01:56 10° NNW visible
26 Nov 9.8 06:18:27 10° NE 06:20:58 17° E 06:23:27 10° SE visible
26 Nov 7.1 18:31:31 10° S 18:35:02 60° W 18:38:40 10° NNW visible
27 Nov 6.4 18:07:57 10° SSE 18:11:31 72° ENE 18:15:11 10° N visible
27 Nov 10.1 19:44:48 10° W 19:45:33 10° W 19:46:18 10° WNW visible
28 Nov 7.7 07:04:03 10° NNE 07:07:45 51° E 07:11:25 10° S visible
28 Nov 7.0 17:44:43 10° SE 17:48:05 38° ENE 17:51:31 10° N visible
28 Nov 9.4 19:19:12 10° SW 19:21:47 19° W 19:24:25 10° NW visible
29 Nov 9.0 06:40:49 10° NNE 06:44:08 28° E 06:47:26 10° SSE visible
29 Nov 7.7 17:21:50 10° ESE 17:24:44 23° ENE 17:27:39 10° NNE visible
29 Nov 8.4 18:54:50 10° SSW 18:58:06 32° W 19:01:27 10° NNW visible
30 Nov 9.8 06:17:56 10° NE 06:20:26 17° E 06:22:55 10° SE visible
30 Nov 8.3 16:59:28 10° E 17:01:26 14° ENE 17:03:25 10° NNE visible
30 Nov 7.1 18:30:56 10° S 18:34:29 61° W 18:38:09 10° NNW visible
01 Dec 6.7 07:26:57 10° NNE 07:30:44 87° WNW 07:34:30 10° SSW visible
01 Dec 6.5 18:07:22 10° SSE 18:10:58 72° ENE 18:14:39 10° N visible
01 Dec 10.1 19:44:03 10° WSW 19:44:58 11° W 19:45:55 10° WNW visible
02 Dec 7.7 07:03:29 10° NNE 07:07:11 51° E 07:10:51 10° S visible
02 Dec 7.0 17:44:07 10° SE 17:47:30 39° ENE 17:50:59 10° N visible
02 Dec 9.4 19:18:33 10° SW 19:21:12 19° W 19:23:53 10° NW visible
03 Dec 9.0 06:40:15 10° NE 06:43:34 28° E 06:46:50 10° SSE visible
03 Dec 7.8 17:21:13 10° ESE 17:24:08 23° ENE 17:27:06 10° NNE visible
03 Dec 8.4 18:54:11 10° SSW 18:57:30 33° W 19:00:53 10° NNW visible
04 Dec 9.8 06:17:21 10° NE 06:19:51 17° E 06:22:18 10° SE visible
04 Dec 8.3 16:58:49 10° E 17:00:49 14° ENE 17:02:51 10° NNE visible
04 Dec 7.1 18:30:16 10° S 18:33:52 61° W 18:37:34 10° NNW visible
